Nome, AK

12:10 AM AKST on February 06, 2016 (GMT -0900)
Nome | | Change Station
CLOSE
Current Station
Airport
Location: Nome,
Elevation: 36 ft
Nearby Weather Stations

Elev 36 ft 64.51 °N, 165.45 °W | Updated 17 minutes ago

Overcast
Overcast
22 °F
Feels Like 12 °F
N
9
Wind Variable Wind from ENE

Today
High -- | Low -- °F
--% Chance of Precip.
Yesterday
High -- | Low -- °F
Precip. -- in
Pressure 29.25 in
Visibility 10.0 miles
Clouds Overcast 1300 ft
Windchill 12 °F
Dew Point 19 °F
Humidity 89%
Rainfall 0.00 in
Snow Depth Not available.
10:29 AM 6:03 PM
Waning Crescent, 6% visible
METAR PAOM 060853Z 07008KT 10SM OVC013 M06/M07 A2925 RMK SLP905 T10561072 410441133 53020 VIA AUTODIAL
Pressure 29.25 in
Visibility 10.0 miles
Clouds Overcast 1300 ft
Windchill 12 °F
Dew Point 19 °F
Humidity 89%
Rainfall 0.00 in
Snow Depth Not available.
10:29 AM 6:03 PM
Waning Crescent, 6% visible
METAR PAOM 060853Z 07008KT 10SM OVC013 M06/M07 A2925 RMK SLP905 T10561072 410441133 53020 VIA AUTODIAL

10-Day Weather Forecast

Almanac

Astronomy

Feb. 06, 2016 Rise Set
Actual Time
Civil Twilight
Nautical Twilight
Astronomical Twilight
Moon
Length of Visible Light
Length of Day
Tomorrow will be .
, % of the Moon is Illuminated

Today's Extremes

State Highs State Lows

Community

WunderPhotos

Upload Photos

1,890,933 photos uploaded!

WunderBlog® & News

Nearby

Air Quality

  Air Quality AQ Index Pollutant
Not available.

Snow Depth

Station Depth Elevation

Earthquake Activity

City Distance Mag. Time & Date
Minimum magnitude displayed is 2.5.

Coastal Water Temperatures

Place Temperature

Stations

Nearby Weather Stations

Station Location Temp. Windchill Dew Point Humidity Wind Precip. Elev Updated Type
                   

Watches & Warnings

There are currently no watches in effect.